| time (UTC) | temp F | wind direction | speed knots | gust knots | rain 1hr in | rain 24hr in | rain mn in | humidity % | barometer mb |
| 20260507113624 | 61 | 343 | 0.0 | 1.7 | 0.00 | 0.00 | 0.00 | 59 | 1013.0 |
| 20260507112704 | 60 | 0 | 0.0 | 0.0 | 0.00 | 0.00 | 0.00 | 60 | 1012.9 |
| 20260507111803 | 59 | 23 | 0.0 | 1.7 | 0.00 | 0.00 | 0.00 | 62 | 1013.2 |
| 20260507110903 | 58 | 13 | 0.0 | 3.5 | 0.00 | 0.00 | 0.00 | 64 | 1013.2 |
| 20260507110003 | 59 | 0 | 0.0 | 0.0 | 0.00 | 0.00 | 0.00 | 63 | 1013.2 |
| 20260507105403 | 59 | 0 | 0.0 | 0.0 | 0.00 | 0.00 | 0.00 | 64 | 1013.1 |
| 20260507104504 | 59 | 163 | 0.0 | 1.7 | 0.00 | 0.00 | 0.00 | 65 | 1013.5 |
| 20260507103624 | 59 | 262 | 0.0 | 0.9 | 0.00 | 0.00 | 0.00 | 64 | 1013.4 |
| 20260507102703 | 59 | 324 | 0.0 | 0.9 | 0.00 | 0.00 | 0.00 | 64 | 1013.5 |
| 20260507101803 | 58 | 0 | 0.0 | 0.0 | 0.00 | 0.00 | 0.00 | 66 | 1013.1 |
| 20260507100903 | 58 | 283 | 0.0 | 0.9 | 0.00 | 0.00 | 0.00 | 67 | 1013.5 |
| 20260507100003 | 58 | 0 | 0.0 | 0.0 | 0.00 | 0.00 | 0.00 | 67 | 1013.4 |
| 20260507095403 | 58 | 134 | 0.0 | 0.9 | 0.00 | 0.00 | 0.00 | 68 | 1013.2 |
| 20260507094525 | 58 | 163 | 0.0 | 1.7 | 0.00 | 0.00 | 0.00 | 67 | 1013.1 |
| 20260507093603 | 58 | 164 | 0.0 | 2.6 | 0.00 | 0.00 | 0.00 | 65 | 1013.4 |
| 20260507092703 | 58 | 160 | 0.9 | 6.1 | 0.00 | 0.00 | 0.00 | 66 | 1012.9 |
| 20260507091803 | 60 | 166 | 0.9 | 3.5 | 0.00 | 0.00 | 0.00 | 65 | 1013.0 |
| 20260507090924 | 61 | 197 | 0.9 | 2.6 | 0.00 | 0.00 | 0.00 | 63 | 1013.0 |
| 20260507090005 | 61 | 160 | 0.0 | 2.6 | 0.00 | 0.00 | 0.00 | 65 | 1013.2 |
| 20260507085403 | 59 | 162 | 0.9 | 5.2 | 0.00 | 0.00 | 0.00 | 68 | 1013.1 |
| 20260507084503 | 59 | 175 | 0.9 | 3.5 | 0.00 | 0.00 | 0.00 | 70 | 1013.0 |
| 20260507083603 | 59 | 138 | 0.9 | 3.5 | 0.00 | 0.00 | 0.00 | 69 | 1012.7 |
| 20260507082724 | 59 | 162 | 0.9 | 3.5 | 0.00 | 0.00 | 0.00 | 72 | 1012.9 |
| 20260507081803 | 57 | 163 | 0.9 | 2.6 | 0.00 | 0.00 | 0.00 | 77 | 1013.1 |
| 20260507080903 | 55 | 164 | 0.9 | 3.5 | 0.00 | 0.00 | 0.00 | 80 | 1013.0 |
| 20260507080003 | 54 | 0 | 0.0 | 0.0 | 0.00 | 0.00 | 0.00 | 83 | 1012.9 |
| 20260507075403 | 53 | 0 | 0.0 | 0.0 | 0.00 | 0.00 | 0.00 | 84 | 1013.0 |
| 20260507074524 | 52 | 0 | 0.0 | 0.0 | 0.00 | 0.00 | 0.00 | 85 | 1012.8 |
| 20260507073603 | 52 | 0 | 0.0 | 0.0 | 0.00 | 0.00 | 0.00 | 86 | 1012.8 |
| 20260507072703 | 52 | 153 | 0.0 | 1.7 | 0.00 | 0.00 | 0.00 | 87 | 1012.9 |
| 20260507071803 | 51 | 129 | 0.0 | 0.9 | 0.00 | 0.00 | 0.00 | 88 | 1012.5 |
| 20260507070903 | 51 | 0 | 0.0 | 0.0 | 0.00 | 0.00 | 0.00 | 88 | 1012.4 |
| 20260507070005 | 50 | 0 | 0.0 | 0.0 | 0.00 | 0.00 | 0.00 | 89 | 1012.4 |
| 20260507065403 | 50 | 0 | 0.0 | 0.0 | 0.00 | 0.00 | 0.00 | 90 | 1012.7 |
| 20260507064503 | 50 | 0 | 0.0 | 0.0 | 0.00 | 0.00 | 0.00 | 90 | 1012.7 |
| 20260507063603 | 49 | 0 | 0.0 | 0.0 | 0.00 | 0.00 | 0.00 | 91 | 1012.6 |
| 20260507062703 | 49 | 0 | 0.0 | 0.0 | 0.00 | 0.00 | 0.00 | 91 | 1012.8 |
| 20260507061803 | 49 | 0 | 0.0 | 0.0 | 0.00 | 0.00 | 0.00 | 92 | 1012.5 |
| 20260507060903 | 48 | 0 | 0.0 | 0.0 | 0.00 | 0.00 | 0.00 | 93 | 1012.4 |
| 20260507060024 | 48 | 0 | 0.0 | 0.0 | 0.00 | 0.00 | 0.00 | 94 | 1012.3 |
| 20260507055424 | 48 | 0 | 0.0 | 0.0 | 0.00 | 0.00 | 0.00 | 95 | 1012.2 |
| 20260507054503 | 48 | 0 | 0.0 | 0.0 | 0.00 | 0.00 | 0.00 | 96 | 1012.0 |
| 20260507053603 | 47 | 0 | 0.0 | 0.0 | 0.00 | 0.00 | 0.00 | 96 | 1012.1 |
| 20260507052703 | 47 | 0 | 0.0 | 0.0 | 0.00 | 0.00 | 0.00 | 97 | 1012.2 |
| 20260507051803 | 47 | 0 | 0.0 | 0.0 | 0.00 | 0.00 | 0.00 | 97 | 1011.9 |
| 20260507050903 | 46 | 0 | 0.0 | 0.0 | 0.00 | 0.00 | 0.00 | 97 | 1011.8 |
| 20260507050003 | 46 | 0 | 0.0 | 0.0 | 0.00 | 0.00 | 0.00 | 97 | 1011.8 |
| 20260507045403 | 46 | 0 | 0.0 | 0.0 | 0.00 | 0.00 | 0.00 | 97 | 1011.8 |
| 20260507044503 | 46 | 0 | 0.0 | 0.0 | 0.00 | 0.00 | 0.00 | 97 | 1011.7 |
| 20260507043603 | 46 | 0 | 0.0 | 0.0 | 0.00 | 0.00 | 0.00 | 97 | 1011.7 |
| 20260507042703 | 46 | 0 | 0.0 | 0.0 | 0.00 | 0.00 | 0.00 | 97 | 1011.6 |
| 20260507041804 | 46 | 0 | 0.0 | 0.0 | 0.00 | 0.00 | 0.00 | 97 | 1011.6 |
| 20260507040903 | 46 | 0 | 0.0 | 0.0 | 0.00 | 0.00 | 0.00 | 97 | 1011.6 |
| 20260507040004 | 46 | 359 | 0.0 | 0.9 | 0.00 | 0.00 | 0.00 | 97 | 1011.2 |
| 20260507035403 | 46 | 353 | 0.0 | 1.7 | 0.00 | 0.00 | 0.00 | 97 | 1011.2 |
| 20260507034505 | 46 | 0 | 0.0 | 0.0 | 0.00 | 0.00 | 0.00 | 97 | 1010.9 |
| 20260507033603 | 45 | 0 | 0.0 | 0.0 | 0.00 | 0.00 | 0.00 | 97 | 1011.1 |
| 20260507032725 | 45 | 0 | 0.0 | 0.0 | 0.00 | 0.00 | 0.00 | 98 | 1010.7 |
| 20260507031803 | 45 | 0 | 0.0 | 0.0 | 0.00 | 0.00 | 0.00 | 97 | 1010.8 |
| 20260507030903 | 45 | 0 | 0.0 | 0.0 | 0.00 | 0.00 | 0.00 | 97 | 1010.7 |
| 20260507030005 | 45 | 0 | 0.0 | 0.0 | 0.00 | 0.00 | 0.00 | 97 | 1010.8 |
| 20260507025403 | 45 | 0 | 0.0 | 0.0 | 0.00 | 0.00 | 0.00 | 97 | 1010.8 |
| 20260507024525 | 45 | 0 | 0.0 | 0.0 | 0.00 | 0.00 | 0.00 | 97 | 1010.8 |
| 20260507023624 | 44 | 0 | 0.0 | 0.0 | 0.00 | 0.00 | 0.00 | 98 | 1010.7 |
| 20260507022703 | 45 | 0 | 0.0 | 0.0 | 0.00 | 0.00 | 0.00 | 97 | 1010.9 |
| 20260507021804 | 45 | 0 | 0.0 | 0.0 | 0.00 | 0.00 | 0.00 | 98 | 1010.9 |
| 20260507020903 | 44 | 0 | 0.0 | 0.0 | 0.00 | 0.00 | 0.00 | 97 | 1010.8 |
| 20260507020003 | 44 | 0 | 0.0 | 0.0 | 0.00 | 0.00 | 0.00 | 97 | 1010.7 |
| 20260507015403 | 44 | 0 | 0.0 | 0.0 | 0.00 | 0.00 | 0.00 | 97 | 1010.5 |
| 20260507014503 | 44 | 0 | 0.0 | 0.0 | 0.00 | 0.00 | 0.00 | 97 | 1010.6 |
| 20260507013603 | 44 | 0 | 0.0 | 0.0 | 0.00 | 0.00 | 0.00 | 97 | 1010.7 |
| 20260507012703 | 43 | 0 | 0.0 | 0.0 | 0.00 | 0.00 | 0.00 | 97 | 1010.5 |
| 20260507011805 | 43 | 0 | 0.0 | 0.0 | 0.00 | 0.00 | 0.00 | 97 | 1010.5 |
| 20260507010903 | 43 | 0 | 0.0 | 0.0 | 0.00 | 0.00 | 0.00 | 97 | 1010.6 |
| 20260507010005 | 44 | 0 | 0.0 | 0.0 | 0.00 | 0.00 | 0.00 | 97 | 1010.7 |
| 20260507005403 | 44 | 0 | 0.0 | 0.0 | 0.00 | 0.00 | 0.00 | 97 | 1010.5 |
| 20260507004524 | 44 | 0 | 0.0 | 0.0 | 0.00 | 0.00 | 0.00 | 96 | 1010.6 |
| 20260507003603 | 44 | 0 | 0.0 | 0.0 | 0.00 | 0.00 | 0.00 | 96 | 1010.4 |
| 20260507002703 | 45 | 0 | 0.0 | 0.0 | 0.00 | 0.00 | 0.00 | 96 | 1010.5 |
| 20260507001803 | 44 | 0 | 0.0 | 0.0 | 0.00 | 0.00 | 0.00 | 96 | 1010.4 |
| 20260507000926 | 45 | 0 | 0.0 | 0.0 | 0.00 | 0.00 | 0.00 | 96 | 1010.1 |
| 20260507000003 | 45 | 0 | 0.0 | 0.0 | 0.00 | 0.00 | 0.00 | 95 | 1010.3 |
| 20260506235403 | 45 | 0 | 0.0 | 0.0 | 0.00 | 0.00 | 0.00 | 95 | 1010.6 |
| 20260506234503 | 45 | 0 | 0.0 | 0.0 | 0.00 | 0.00 | 0.00 | 95 | 1010.4 |
| 20260506233603 | 45 | 0 | 0.0 | 0.0 | 0.00 | 0.00 | 0.00 | 94 | 1010.3 |
| 20260506232705 | 46 | 0 | 0.0 | 0.0 | 0.00 | 0.00 | 0.00 | 94 | 1010.3 |
| 20260506231803 | 46 | 0 | 0.0 | 0.0 | 0.00 | 0.00 | 0.00 | 93 | 1010.2 |
| 20260506230903 | 47 | 0 | 0.0 | 0.0 | 0.00 | 0.00 | 0.00 | 93 | 1010.4 |
| 20260506230003 | 48 | 0 | 0.0 | 0.0 | 0.00 | 0.00 | 0.00 | 92 | 1010.2 |
| 20260506225403 | 48 | 0 | 0.0 | 0.0 | 0.00 | 0.00 | 0.00 | 92 | 1010.2 |
| 20260506224504 | 49 | 0 | 0.0 | 0.0 | 0.00 | 0.00 | 0.00 | 92 | 1010.0 |
| 20260506223603 | 49 | 0 | 0.0 | 0.0 | 0.00 | 0.00 | 0.00 | 92 | 1009.9 |
| 20260506222705 | 49 | 0 | 0.0 | 0.0 | 0.00 | 0.00 | 0.00 | 91 | 1009.8 |
| 20260506221803 | 49 | 0 | 0.0 | 0.0 | 0.00 | 0.00 | 0.00 | 91 | 1010.1 |
| 20260506220903 | 50 | 0 | 0.0 | 0.0 | 0.00 | 0.00 | 0.00 | 91 | 1010.0 |
| 20260506220003 | 50 | 0 | 0.0 | 0.0 | 0.00 | 0.00 | 0.00 | 91 | 1010.2 |
| 20260506215424 | 50 | 0 | 0.0 | 0.0 | 0.00 | 0.00 | 0.00 | 91 | 1010.0 |
| 20260506214503 | 50 | 0 | 0.0 | 0.0 | 0.00 | 0.00 | 0.00 | 90 | 1010.0 |
| 20260506213603 | 50 | 0 | 0.0 | 0.0 | 0.00 | 0.00 | 0.00 | 90 | 1009.8 |
| 20260506212703 | 50 | 0 | 0.0 | 0.0 | 0.00 | 0.00 | 0.00 | 90 | 1009.8 |
| 20260506211824 | 50 | 0 | 0.0 | 0.0 | 0.00 | 0.00 | 0.00 | 89 | 1009.8 |
| 20260506210903 | 50 | 0 | 0.0 | 0.0 | 0.00 | 0.00 | 0.00 | 90 | 1009.7 |
| 20260506210003 | 50 | 0 | 0.0 | 0.0 | 0.00 | 0.00 | 0.00 | 90 | 1009.5 |
| 20260506205403 | 50 | 357 | 0.0 | 0.9 | 0.00 | 0.00 | 0.00 | 90 | 1009.7 |
| 20260506204503 | 50 | 346 | 0.0 | 1.7 | 0.00 | 0.00 | 0.00 | 89 | 1009.4 |
| 20260506203624 | 51 | 345 | 0.9 | 1.7 | 0.00 | 0.00 | 0.00 | 89 | 1009.7 |
| 20260506202703 | 51 | 344 | 0.9 | 1.7 | 0.00 | 0.00 | 0.00 | 89 | 1009.7 |
| 20260506201803 | 51 | 2 | 0.9 | 2.6 | 0.00 | 0.00 | 0.00 | 89 | 1009.4 |
| 20260506200903 | 51 | 352 | 0.9 | 1.7 | 0.00 | 0.00 | 0.00 | 88 | 1009.4 |
| 20260506200003 | 51 | 360 | 0.9 | 2.6 | 0.00 | 0.00 | 0.00 | 88 | 1009.3 |
| 20260506195403 | 52 | 357 | 0.9 | 1.7 | 0.00 | 0.00 | 0.00 | 88 | 1009.2 |
| 20260506194524 | 52 | 357 | 0.9 | 6.1 | 0.00 | 0.00 | 0.00 | 87 | 1009.3 |
| 20260506193603 | 52 | 359 | 1.7 | 6.1 | 0.00 | 0.00 | 0.00 | 86 | 1009.1 |
| 20260506192703 | 52 | 9 | 1.7 | 5.2 | 0.00 | 0.00 | 0.00 | 86 | 1009.1 |
| 20260506191803 | 52 | 357 | 1.7 | 2.6 | 0.00 | 0.00 | 0.00 | 85 | 1008.7 |
| 20260506190903 | 53 | 1 | 2.6 | 5.2 | 0.00 | 0.00 | 0.00 | 85 | 1008.9 |
| 20260506190024 | 53 | 3 | 2.6 | 7.0 | 0.00 | 0.00 | 0.00 | 84 | 1009.0 |
| 20260506185406 | 53 | 2 | 2.6 | 7.0 | 0.00 | 0.00 | 0.00 | 84 | 1008.5 |
| 20260506184503 | 53 | 358 | 3.5 | 7.0 | 0.00 | 0.00 | 0.00 | 83 | 1008.7 |
| 20260506183604 | 54 | 9 | 3.5 | 8.7 | 0.00 | 0.00 | 0.00 | 82 | 1008.6 |
| 20260506182725 | 54 | 351 | 2.6 | 7.8 | 0.00 | 0.00 | 0.00 | 81 | 1008.6 |
| 20260506181804 | 54 | 359 | 3.5 | 9.6 | 0.00 | 0.00 | 0.00 | 81 | 1008.4 |
| 20260506180924 | 54 | 359 | 3.5 | 7.8 | 0.00 | 0.00 | 0.00 | 80 | 1008.2 |
| 20260506180004 | 54 | 5 | 4.3 | 10.4 | 0.00 | 0.00 | 0.00 | 80 | 1008.4 |
| 20260506175403 | 54 | 359 | 3.5 | 7.8 | 0.00 | 0.00 | 0.00 | 80 | 1008.2 |
| 20260506174503 | 54 | 359 | 3.5 | 7.8 | 0.00 | 0.00 | 0.00 | 79 | 1008.0 |
| 20260506173603 | 55 | 349 | 3.5 | 6.1 | 0.00 | 0.00 | 0.00 | 78 | 1008.1 |
| 20260506172704 | 55 | 356 | 3.5 | 7.8 | 0.00 | 0.00 | 0.00 | 78 | 1008.1 |
| 20260506171803 | 55 | 352 | 3.5 | 8.7 | 0.00 | 0.00 | 0.00 | 76 | 1007.9 |
| 20260506170903 | 55 | 2 | 3.5 | 8.7 | 0.00 | 0.00 | 0.00 | 77 | 1008.0 |
| 20260506170003 | 55 | 3 | 3.5 | 7.8 | 0.00 | 0.00 | 0.00 | 78 | 1007.9 |
| 20260506165403 | 55 | 355 | 3.5 | 7.0 | 0.00 | 0.00 | 0.00 | 78 | 1007.9 |
| 20260506164525 | 55 | 356 | 3.5 | 9.6 | 0.00 | 0.00 | 0.00 | 78 | 1007.8 |
| 20260506163603 | 56 | 356 | 4.3 | 7.8 | 0.00 | 0.00 | 0.00 | 77 | 1007.8 |
| 20260506162703 | 56 | 1 | 4.3 | 12.2 | 0.00 | 0.00 | 0.00 | 76 | 1007.6 |
| 20260506161803 | 56 | 1 | 4.3 | 12.2 | 0.00 | 0.00 | 0.00 | 75 | 1007.4 |
| 20260506160903 | 57 | 357 | 4.3 | 8.7 | 0.00 | 0.00 | 0.00 | 73 | 1007.6 |
| 20260506160024 | 57 | 352 | 4.3 | 10.4 | 0.00 | 0.00 | 0.00 | 72 | 1007.6 |
| 20260506155424 | 57 | 358 | 4.3 | 12.2 | 0.00 | 0.00 | 0.00 | 71 | 1007.6 |
| 20260506154503 | 57 | 352 | 4.3 | 9.6 | 0.00 | 0.00 | 0.00 | 71 | 1007.4 |
| 20260506153603 | 56 | 355 | 5.2 | 9.6 | 0.00 | 0.00 | 0.00 | 74 | 1007.6 |
| 20260506152703 | 56 | 357 | 4.3 | 10.4 | 0.00 | 0.00 | 0.00 | 75 | 1007.6 |
| 20260506151803 | 56 | 356 | 4.3 | 9.6 | 0.00 | 0.00 | 0.00 | 75 | 1007.6 |
| 20260506150903 | 56 | 352 | 4.3 | 9.6 | 0.00 | 0.00 | 0.00 | 75 | 1007.5 |
| 20260506150003 | 57 | 348 | 4.3 | 7.8 | 0.00 | 0.00 | 0.00 | 73 | 1007.5 |
| 20260506145424 | 57 | 352 | 4.3 | 8.7 | 0.00 | 0.00 | 0.00 | 73 | 1007.5 |
| 20260506144524 | 57 | 358 | 4.3 | 7.8 | 0.00 | 0.00 | 0.00 | 73 | 1007.6 |
| 20260506143603 | 57 | 6 | 5.2 | 9.6 | 0.00 | 0.00 | 0.00 | 73 | 1007.4 |
| 20260506142703 | 57 | 359 | 4.3 | 9.6 | 0.00 | 0.00 | 0.00 | 74 | 1007.5 |
| 20260506141803 | 58 | 360 | 4.3 | 9.6 | 0.00 | 0.00 | 0.00 | 72 | 1007.2 |
| 20260506140903 | 58 | 359 | 4.3 | 8.7 | 0.00 | 0.00 | 0.00 | 72 | 1007.3 |
| 20260506140003 | 57 | 3 | 4.3 | 12.2 | 0.00 | 0.00 | 0.00 | 72 | 1007.2 |
| 20260506135403 | 58 | 4 | 3.5 | 8.7 | 0.00 | 0.00 | 0.00 | 70 | 1007.2 |
| 20260506134503 | 58 | 7 | 4.3 | 12.2 | 0.00 | 0.00 | 0.00 | 70 | 1007.1 |
| 20260506133603 | 57 | 350 | 3.5 | 8.7 | 0.00 | 0.00 | 0.00 | 70 | 1007.2 |
| 20260506132703 | 57 | 360 | 4.3 | 9.6 | 0.00 | 0.00 | 0.00 | 71 | 1007.2 |
| 20260506131803 | 58 | 353 | 3.5 | 8.7 | 0.00 | 0.00 | 0.00 | 70 | 1007.3 |
| 20260506130903 | 57 | 357 | 3.5 | 8.7 | 0.00 | 0.00 | 0.00 | 72 | 1007.2 |
| 20260506130005 | 58 | 348 | 4.3 | 8.7 | 0.00 | 0.00 | 0.00 | 69 | 1007.1 |
| 20260506125424 | 57 | 355 | 3.5 | 8.7 | 0.00 | 0.00 | 0.00 | 72 | 1007.2 |
| 20260506124503 | 56 | 355 | 3.5 | 7.0 | 0.00 | 0.00 | 0.00 | 75 | 1007.2 |
| 20260506123603 | 57 | 1 | 3.5 | 7.8 | 0.00 | 0.00 | 0.00 | 75 | 1007.0 |
| 20260506122704 | 56 | 5 | 3.5 | 9.6 | 0.00 | 0.00 | 0.00 | 77 | 1007.1 |
| 20260506121824 | 56 | 358 | 4.3 | 8.7 | 0.00 | 0.00 | 0.00 | 77 | 1007.2 |
| 20260506120903 | 56 | 347 | 4.3 | 7.8 | 0.00 | 0.00 | 0.00 | 78 | 1007.1 |
| 20260506120003 | 55 | 349 | 3.5 | 9.6 | 0.00 | 0.00 | 0.00 | 79 | 1007.0 |
| 20260506115403 | 56 | 1 | 3.5 | 9.6 | 0.00 | 0.00 | 0.00 | 79 | 1007.0 |
| 20260506114503 | 55 | 345 | 3.5 | 7.8 | 0.00 | 0.00 | 0.00 | 79 | 1007.1 |